Time,TemperatureF,DewpointF,PressureIn,WindDirection,WindDirectionDegrees,WindSpeedMPH,WindSpeedGustMPH,Humidity,HourlyPrecipIn,Conditions,Clouds,dailyrainin,SolarRadiationWatts/m^2,SoftwareType,DateUTC
2013-09-25 00:00:00,44.8,43.5,30.01,North,5,0.0,0.0,95,0.00,,,0.00,0,Wunderground v.1.15,2013-09-25 04:00:00,
2013-09-25 00:01:00,44.8,43.5,30.01,North,-999,0.0,0.0,95,0.00,,,-99.99,0,WeatherLink 6.0.3,2013-09-25 04:01:00,
2013-09-25 00:03:00,44.8,43.5,30.00,North,5,0.0,0.0,95,0.00,,,0.00,0,Wunderground v.1.15,2013-09-25 04:03:00,
2013-09-25 00:09:00,44.8,43.5,30.00,North,5,0.0,0.0,95,0.00,,,0.00,0,Wunderground v.1.15,2013-09-25 04:09:00,
2013-09-25 00:11:00,44.7,43.4,30.01,North,5,0.0,0.0,95,0.00,,,0.00,0,Wunderground v.1.15,2013-09-25 04:11:00,
2013-09-25 00:16:00,44.7,43.4,30.01,North,5,0.0,0.0,95,0.00,,,0.00,0,Wunderground v.1.15,2013-09-25 04:16:00,
2013-09-25 00:22:00,44.7,43.6,30.01,North,5,0.0,0.0,96,0.00,,,0.00,0,Wunderground v.1.15,2013-09-25 04:22:00,
2013-09-25 00:28:00,44.6,43.3,30.01,North,5,0.0,0.0,95,0.00,,,0.00,0,Wunderground v.1.15,2013-09-25 04:28:00,
2013-09-25 00:32:00,44.6,43.3,30.01,North,5,0.0,0.0,95,0.00,,,0.00,0,Wunderground v.1.15,2013-09-25 04:32:00,
2013-09-25 00:38:00,44.6,43.5,30.01,North,5,0.0,0.0,96,0.00,,,0.00,0,Wunderground v.1.15,2013-09-25 04:38:00,
2013-09-25 00:43:00,44.6,43.5,30.01,North,5,0.0,0.0,96,0.00,,,0.00,0,Wunderground v.1.15,2013-09-25 04:43:00,
2013-09-25 00:49:00,44.7,43.6,30.01,North,5,0.0,0.0,96,0.00,,,0.00,0,Wunderground v.1.15,2013-09-25 04:49:00,
2013-09-25 00:55:00,44.6,43.5,30.01,North,5,0.0,0.0,96,0.00,,,0.00,0,Wunderground v.1.15,2013-09-25 04:55:00,
2013-09-25 01:01:00,44.5,43.4,30.01,North,-999,0.0,0.0,96,0.00,,,-99.99,0,WeatherLink 6.0.3,2013-09-25 05:01:00,
2013-09-25 01:07:00,44.2,43.1,30.01,North,5,0.0,0.0,96,0.00,,,0.00,0,Wunderground v.1.15,2013-09-25 05:07:00,
2013-09-25 01:12:00,44.0,42.7,30.01,North,5,0.0,0.0,95,0.00,,,0.00,0,Wunderground v.1.15,2013-09-25 05:12:00,
2013-09-25 01:18:00,43.7,42.4,30.01,North,5,0.0,0.0,95,0.00,,,0.00,0,Wunderground v.1.15,2013-09-25 05:18:00,
2013-09-25 01:24:00,43.6,42.5,30.00,North,5,0.0,0.0,96,0.00,,,0.00,0,Wunderground v.1.15,2013-09-25 05:24:00,
2013-09-25 01:30:00,43.5,42.2,30.00,North,5,0.0,0.0,95,0.00,,,0.00,0,Wunderground v.1.15,2013-09-25 05:30:00,
2013-09-25 01:36:00,43.3,42.0,30.00,North,5,0.0,0.0,95,0.00,,,0.00,0,Wunderground v.1.15,2013-09-25 05:36:00,
2013-09-25 01:42:00,43.2,42.1,30.00,North,5,0.0,0.0,96,0.00,,,0.00,0,Wunderground v.1.15,2013-09-25 05:42:00,
2013-09-25 01:47:00,43.2,42.1,30.00,North,5,0.0,0.0,96,0.00,,,0.00,0,Wunderground v.1.15,2013-09-25 05:47:00,
2013-09-25 01:53:00,43.3,42.2,30.00,North,5,0.0,0.0,96,0.00,,,0.00,0,Wunderground v.1.15,2013-09-25 05:53:00,
2013-09-25 01:58:00,43.3,42.2,30.00,North,5,0.0,0.0,96,0.00,,,0.00,0,Wunderground v.1.15,2013-09-25 05:58:00,
2013-09-25 02:04:00,43.3,42.2,29.99,North,5,0.0,0.0,96,0.00,,,0.00,0,Wunderground v.1.15,2013-09-25 06:04:00,
2013-09-25 02:09:00,43.4,42.3,29.99,North,5,0.0,0.0,96,0.00,,,0.00,0,Wunderground v.1.15,2013-09-25 06:09:00,
2013-09-25 02:14:00,43.6,42.5,29.99,North,5,0.0,0.0,96,0.00,,,0.00,0,Wunderground v.1.15,2013-09-25 06:14:00,
2013-09-25 02:20:00,43.9,43.1,29.99,North,5,0.0,0.0,97,0.00,,,0.00,0,Wunderground v.1.15,2013-09-25 06:20:00,
2013-09-25 02:26:00,44.2,43.4,29.99,North,5,0.0,0.0,97,0.00,,,0.00,0,Wunderground v.1.15,2013-09-25 06:26:00,
2013-09-25 02:31:00,44.4,43.3,29.99,North,5,0.0,0.0,96,0.00,,,0.00,0,Wunderground v.1.15,2013-09-25 06:31:00,
2013-09-25 02:36:00,44.5,43.4,29.99,North,5,0.0,0.0,96,0.00,,,0.00,0,Wunderground v.1.15,2013-09-25 06:36:00,
2013-09-25 02:41:00,44.5,43.4,29.99,North,5,0.0,0.0,96,0.00,,,0.00,0,Wunderground v.1.15,2013-09-25 06:41:00,
2013-09-25 02:47:00,44.5,43.4,29.98,North,5,0.0,0.0,96,0.00,,,0.00,0,Wunderground v.1.15,2013-09-25 06:47:00,
2013-09-25 02:53:00,44.4,43.3,29.98,North,5,0.0,0.0,96,0.00,,,0.00,0,Wunderground v.1.15,2013-09-25 06:53:00,
2013-09-25 02:59:00,44.4,43.3,29.98,North,5,0.0,0.0,96,0.00,,,0.00,0,Wunderground v.1.15,2013-09-25 06:59:00,
2013-09-25 03:05:00,44.4,43.3,29.98,North,5,0.0,0.0,96,0.00,,,0.00,0,Wunderground v.1.15,2013-09-25 07:05:00,
2013-09-25 03:10:00,44.3,43.2,29.98,North,5,0.0,0.0,96,0.00,,,0.00,0,Wunderground v.1.15,2013-09-25 07:10:00,
2013-09-25 03:16:00,44.2,43.1,29.98,North,5,0.0,0.0,96,0.00,,,0.00,0,Wunderground v.1.15,2013-09-25 07:16:00,
2013-09-25 03:21:00,44.1,43.0,29.97,North,5,0.0,0.0,96,0.00,,,0.00,0,Wunderground v.1.15,2013-09-25 07:21:00,
2013-09-25 03:27:00,44.1,43.0,29.97,North,5,0.0,0.0,96,0.00,,,0.00,0,Wunderground v.1.15,2013-09-25 07:27:00,
2013-09-25 03:33:00,44.1,43.0,29.97,North,5,0.0,0.0,96,0.00,,,0.00,0,Wunderground v.1.15,2013-09-25 07:33:00,
2013-09-25 03:39:00,44.0,42.9,29.97,North,5,0.0,0.0,96,0.00,,,0.00,0,Wunderground v.1.15,2013-09-25 07:39:00,
2013-09-25 03:45:00,43.9,42.8,29.97,North,5,0.0,0.0,96,0.00,,,0.00,0,Wunderground v.1.15,2013-09-25 07:45:00,
2013-09-25 03:51:00,44.1,43.3,29.97,North,5,0.0,0.0,97,0.00,,,0.00,0,Wunderground v.1.15,2013-09-25 07:51:00,
2013-09-25 03:56:00,44.1,43.3,29.97,North,5,0.0,0.0,97,0.00,,,0.00,0,Wunderground v.1.15,2013-09-25 07:56:00,
2013-09-25 04:02:00,44.1,43.3,29.97,North,5,0.0,0.0,97,0.00,,,0.00,0,Wunderground v.1.15,2013-09-25 08:02:00,
2013-09-25 04:08:00,44.1,43.3,29.97,North,5,0.0,0.0,97,0.00,,,0.00,0,Wunderground v.1.15,2013-09-25 08:08:00,
2013-09-25 04:14:00,43.9,42.8,29.97,North,5,0.0,0.0,96,0.00,,,0.00,0,Wunderground v.1.15,2013-09-25 08:14:00,
2013-09-25 04:20:00,43.7,42.6,29.96,North,5,0.0,0.0,96,0.00,,,0.00,0,Wunderground v.1.15,2013-09-25 08:20:00,
2013-09-25 04:26:00,43.5,42.4,29.96,North,5,0.0,0.0,96,0.00,,,0.00,0,Wunderground v.1.15,2013-09-25 08:26:00,
2013-09-25 04:32:00,43.4,42.3,29.96,North,5,0.0,0.0,96,0.00,,,0.00,0,Wunderground v.1.15,2013-09-25 08:32:00,
2013-09-25 04:38:00,43.3,42.2,29.96,North,5,0.0,0.0,96,0.00,,,0.00,0,Wunderground v.1.15,2013-09-25 08:38:00,
2013-09-25 04:44:00,43.3,42.2,29.96,North,5,0.0,0.0,96,0.00,,,0.00,0,Wunderground v.1.15,2013-09-25 08:44:00,
2013-09-25 04:50:00,43.3,42.2,29.96,North,5,0.0,0.0,96,0.00,,,0.00,0,Wunderground v.1.15,2013-09-25 08:50:00,
2013-09-25 04:55:00,43.3,42.2,29.96,North,5,0.0,0.0,96,0.00,,,0.00,0,Wunderground v.1.15,2013-09-25 08:55:00,
2013-09-25 05:01:00,43.2,42.1,29.96,North,-999,0.0,0.0,96,0.00,,,-99.99,0,WeatherLink 6.0.3,2013-09-25 09:01:00,
2013-09-25 05:06:00,43.1,42.0,29.96,North,5,0.0,0.0,96,0.00,,,0.00,0,Wunderground v.1.15,2013-09-25 09:06:00,
2013-09-25 05:11:00,43.1,42.0,29.96,North,5,0.0,0.0,96,0.00,,,0.00,0,Wunderground v.1.15,2013-09-25 09:11:00,
2013-09-25 05:17:00,43.1,42.0,29.96,North,5,0.0,0.0,96,0.00,,,0.00,0,Wunderground v.1.15,2013-09-25 09:17:00,
2013-09-25 05:22:00,43.1,42.0,29.96,North,5,0.0,0.0,96,0.00,,,0.00,0,Wunderground v.1.15,2013-09-25 09:22:00,
2013-09-25 05:28:00,43.0,42.2,29.95,North,5,0.0,0.0,97,0.00,,,0.00,0,Wunderground v.1.15,2013-09-25 09:28:00,
2013-09-25 05:34:00,42.9,42.1,29.95,North,5,0.0,0.0,97,0.00,,,0.00,0,Wunderground v.1.15,2013-09-25 09:34:00,
2013-09-25 05:40:00,42.9,42.1,29.95,North,5,0.0,0.0,97,0.00,,,0.00,0,Wunderground v.1.15,2013-09-25 09:40:00,
2013-09-25 05:46:00,43.0,42.2,29.95,North,5,0.0,0.0,97,0.00,,,0.00,0,Wunderground v.1.15,2013-09-25 09:46:00,
2013-09-25 05:52:00,43.1,42.3,29.95,North,5,0.0,0.0,97,0.00,,,0.00,0,Wunderground v.1.15,2013-09-25 09:52:00,
2013-09-25 05:58:00,43.2,42.4,29.95,North,5,0.0,0.0,97,0.00,,,0.00,0,Wunderground v.1.15,2013-09-25 09:58:00,
2013-09-25 06:04:00,43.4,42.6,29.95,North,5,0.0,0.0,97,0.00,,,0.00,0,Wunderground v.1.15,2013-09-25 10:04:00,
2013-09-25 06:09:00,43.7,42.9,29.95,North,5,0.0,0.0,97,0.00,,,0.00,0,Wunderground v.1.15,2013-09-25 10:09:00,
2013-09-25 06:14:00,43.8,43.0,29.95,North,5,0.0,0.0,97,0.00,,,0.00,0,Wunderground v.1.15,2013-09-25 10:14:00,
2013-09-25 06:20:00,43.8,43.0,29.96,North,5,0.0,0.0,97,0.00,,,0.00,0,Wunderground v.1.15,2013-09-25 10:20:00,
2013-09-25 06:26:00,43.9,43.1,29.96,North,5,0.0,0.0,97,0.00,,,0.00,0,Wunderground v.1.15,2013-09-25 10:26:00,
2013-09-25 06:32:00,43.9,43.1,29.96,North,5,0.0,0.0,97,0.00,,,0.00,0,Wunderground v.1.15,2013-09-25 10:32:00,
2013-09-25 06:38:00,43.9,43.1,29.96,North,5,0.0,0.0,97,0.00,,,0.00,0,Wunderground v.1.15,2013-09-25 10:38:00,
2013-09-25 06:44:00,43.8,43.0,29.96,North,5,0.0,0.0,97,0.00,,,0.00,0,Wunderground v.1.15,2013-09-25 10:44:00,
2013-09-25 06:50:00,43.7,42.9,29.96,North,5,0.0,0.0,97,0.00,,,0.00,0,Wunderground v.1.15,2013-09-25 10:50:00,
2013-09-25 06:56:00,43.8,43.0,29.96,North,5,0.0,0.0,97,0.00,,,0.00,0,Wunderground v.1.15,2013-09-25 10:56:00,
2013-09-25 07:02:00,43.9,43.1,29.96,North,5,0.0,0.0,97,0.00,,,0.00,0,Wunderground v.1.15,2013-09-25 11:02:00,
2013-09-25 07:08:00,44.0,43.2,29.96,North,5,0.0,0.0,97,0.00,,,0.00,0,Wunderground v.1.15,2013-09-25 11:08:00,
2013-09-25 07:13:00,44.0,43.2,29.96,North,5,0.0,0.0,97,0.00,,,0.00,0,Wunderground v.1.15,2013-09-25 11:13:00,
2013-09-25 07:19:00,44.1,43.3,29.96,North,5,0.0,0.0,97,0.00,,,0.00,5,Wunderground v.1.15,2013-09-25 11:19:00,
2013-09-25 07:25:00,44.0,43.2,29.96,North,5,0.0,0.0,97,0.00,,,0.00,9,Wunderground v.1.15,2013-09-25 11:25:00,
2013-09-25 07:31:00,44.1,43.3,29.96,North,-999,0.0,0.0,97,0.00,,,-99.99,4,WeatherLink 6.0.3,2013-09-25 11:31:00,
2013-09-25 07:36:00,44.3,43.5,29.97,North,5,0.0,0.0,97,0.00,,,0.00,23,Wunderground v.1.15,2013-09-25 11:36:00,
2013-09-25 07:42:00,44.6,43.8,29.97,North,5,0.0,0.0,97,0.00,,,0.00,32,Wunderground v.1.15,2013-09-25 11:42:00,
2013-09-25 07:48:00,44.7,43.9,29.97,North,5,0.0,0.0,97,0.00,,,0.00,44,Wunderground v.1.15,2013-09-25 11:48:00,
2013-09-25 07:54:00,45.1,44.3,29.97,North,5,0.0,0.0,97,0.00,,,0.00,56,Wunderground v.1.15,2013-09-25 11:54:00,
2013-09-25 08:00:00,45.6,44.8,29.97,North,5,0.0,0.0,97,0.00,,,0.00,63,Wunderground v.1.15,2013-09-25 12:00:00,
2013-09-25 08:06:00,46.2,45.4,29.97,North,5,0.0,0.0,97,0.00,,,0.00,74,Wunderground v.1.15,2013-09-25 12:06:00,
2013-09-25 08:11:00,46.8,46.0,29.97,North,5,0.0,0.0,97,0.00,,,0.00,91,Wunderground v.1.15,2013-09-25 12:11:00,
2013-09-25 08:17:00,47.6,47.1,29.96,North,5,0.0,0.0,98,0.00,,,0.00,95,Wunderground v.1.15,2013-09-25 12:17:00,
2013-09-25 08:23:00,48.5,48.0,29.96,East,86,0.0,1.0,98,0.00,,,0.00,97,Wunderground v.1.15,2013-09-25 12:23:00,
2013-09-25 08:28:00,49.4,48.9,29.96,East,87,0.0,1.0,98,0.00,,,0.00,93,Wunderground v.1.15,2013-09-25 12:28:00,
2013-09-25 08:34:00,49.8,49.3,29.96,East,86,0.0,1.0,98,0.00,,,0.00,77,Wunderground v.1.15,2013-09-25 12:34:00,
2013-09-25 08:36:00,49.8,49.3,29.97,East,85,0.0,1.0,98,0.00,,,0.00,76,Wunderground v.1.15,2013-09-25 12:36:00,
2013-09-25 08:41:00,49.9,49.4,29.97,East,85,0.0,0.0,98,0.00,,,0.00,76,Wunderground v.1.15,2013-09-25 12:41:00,
2013-09-25 08:47:00,50.0,49.5,29.97,East,85,0.0,0.0,98,0.00,,,0.00,79,Wunderground v.1.15,2013-09-25 12:47:00,
2013-09-25 08:52:00,50.0,49.5,29.97,East,85,0.0,0.0,98,0.00,,,0.00,86,Wunderground v.1.15,2013-09-25 12:52:00,
2013-09-25 08:58:00,50.1,49.3,29.97,East,85,0.0,0.0,97,0.00,,,0.00,97,Wunderground v.1.15,2013-09-25 12:58:00,
2013-09-25 09:04:00,50.1,49.3,29.97,East,85,0.0,0.0,97,0.00,,,0.00,105,Wunderground v.1.15,2013-09-25 13:04:00,
2013-09-25 09:10:00,50.5,49.7,29.98,East,85,0.0,0.0,97,0.00,,,0.00,105,Wunderground v.1.15,2013-09-25 13:10:00,
2013-09-25 09:16:00,50.9,49.8,29.98,East,85,0.0,0.0,96,0.00,,,0.00,104,Wunderground v.1.15,2013-09-25 13:16:00,
2013-09-25 09:21:00,51.2,49.8,29.98,East,85,0.0,0.0,95,0.00,,,0.00,100,Wunderground v.1.15,2013-09-25 13:21:00,
2013-09-25 09:27:00,51.6,50.2,29.97,East,85,0.0,0.0,95,0.00,,,0.00,100,Wunderground v.1.15,2013-09-25 13:27:00,
2013-09-25 09:33:00,52.1,50.7,29.98,East,85,0.0,0.0,95,0.00,,,0.00,116,Wunderground v.1.15,2013-09-25 13:33:00,
2013-09-25 09:38:00,52.8,51.1,29.98,East,85,0.0,1.0,94,0.00,,,0.00,114,Wunderground v.1.15,2013-09-25 13:38:00,
2013-09-25 09:44:00,53.7,51.7,29.98,East,85,0.0,0.0,93,0.00,,,0.00,144,Wunderground v.1.15,2013-09-25 13:44:00,
2013-09-25 09:50:00,54.7,51.8,29.98,East,85,0.0,0.0,90,0.00,,,0.00,93,Wunderground v.1.15,2013-09-25 13:50:00,
2013-09-25 09:56:00,55.4,52.2,29.98,East,85,0.0,1.0,89,0.00,,,0.00,200,Wunderground v.1.15,2013-09-25 13:56:00,
2013-09-25 10:02:00,56.3,52.8,29.98,ENE,78,0.0,1.0,88,0.00,,,0.00,258,Wunderground v.1.15,2013-09-25 14:02:00,
2013-09-25 10:08:00,57.2,53.0,29.98,NE,53,1.0,2.0,86,0.00,,,0.00,306,Wunderground v.1.15,2013-09-25 14:08:00,
2013-09-25 10:14:00,58.3,54.1,29.97,NNE,33,1.0,3.0,86,0.00,,,0.00,352,Wunderground v.1.15,2013-09-25 14:14:00,
2013-09-25 10:20:00,59.6,54.4,29.97,ENE,72,1.0,1.0,83,0.00,,,0.00,357,Wunderground v.1.15,2013-09-25 14:20:00,
2013-09-25 10:26:00,60.9,53.6,29.97,East,101,1.0,2.0,77,0.00,,,0.00,374,Wunderground v.1.15,2013-09-25 14:26:00,
2013-09-25 10:32:00,62.2,53.8,29.97,ESE,106,1.0,4.0,74,0.00,,,0.00,434,Wunderground v.1.15,2013-09-25 14:32:00,
2013-09-25 10:38:00,63.2,55.9,29.97,ENE,76,1.0,4.0,77,0.00,,,0.00,431,Wunderground v.1.15,2013-09-25 14:38:00,
2013-09-25 10:44:00,63.9,53.9,29.97,ESE,117,1.0,3.0,70,0.00,,,0.00,243,Wunderground v.1.15,2013-09-25 14:44:00,
2013-09-25 10:49:00,64.1,54.1,29.97,East,84,1.0,3.0,70,0.00,,,0.00,378,Wunderground v.1.15,2013-09-25 14:49:00,
2013-09-25 10:54:00,64.4,55.2,29.97,ENE,77,1.0,1.0,72,0.00,,,0.00,269,Wunderground v.1.15,2013-09-25 14:54:00,
2013-09-25 11:00:00,64.8,54.8,29.97,East,93,0.0,0.0,70,0.00,,,0.00,97,Wunderground v.1.15,2013-09-25 15:00:00,
2013-09-25 11:06:00,65.0,54.6,29.97,ESE,107,0.0,1.0,69,0.00,,,0.00,355,Wunderground v.1.15,2013-09-25 15:06:00,
2013-09-25 11:11:00,65.5,54.7,29.97,East,97,0.0,1.0,68,0.00,,,0.00,390,Wunderground v.1.15,2013-09-25 15:11:00,
2013-09-25 11:16:00,65.9,54.2,29.97,East,92,1.0,1.0,66,0.00,,,0.00,374,Wunderground v.1.15,2013-09-25 15:16:00,
2013-09-25 11:22:00,66.4,54.7,29.96,East,80,1.0,2.0,66,0.00,,,0.00,457,Wunderground v.1.15,2013-09-25 15:22:00,
2013-09-25 11:27:00,66.9,55.2,29.96,ENE,74,1.0,2.0,66,0.00,,,0.00,527,Wunderground v.1.15,2013-09-25 15:27:00,
2013-09-25 11:33:00,67.7,56.8,29.96,SE,131,1.0,1.0,68,0.00,,,0.00,555,Wunderground v.1.15,2013-09-25 15:33:00,
2013-09-25 11:39:00,68.3,55.6,29.96,ESE,107,1.0,1.0,64,0.00,,,0.00,563,Wunderground v.1.15,2013-09-25 15:39:00,
2013-09-25 11:45:00,68.9,56.2,29.97,ESE,117,0.0,1.0,64,0.00,,,0.00,601,Wunderground v.1.15,2013-09-25 15:45:00,
2013-09-25 11:50:00,69.4,55.4,29.96,SE,146,0.0,1.0,61,0.00,,,0.00,629,Wunderground v.1.15,2013-09-25 15:50:00,
2013-09-25 11:56:00,69.8,54.8,29.96,SSE,167,1.0,3.0,59,0.00,,,0.00,494,Wunderground v.1.15,2013-09-25 15:56:00,
2013-09-25 12:01:00,69.9,55.4,29.96,ESE,112,1.0,6.0,60,0.00,,,-99.99,570,WeatherLink 6.0.3,2013-09-25 16:01:00,
2013-09-25 12:07:00,70.1,56.9,29.96,ESE,121,1.0,3.0,63,0.00,,,0.00,666,Wunderground v.1.15,2013-09-25 16:07:00,
2013-09-25 12:12:00,70.5,55.5,29.96,SSE,151,1.0,1.0,59,0.00,,,0.00,661,Wunderground v.1.15,2013-09-25 16:12:00,
2013-09-25 12:18:00,70.8,56.2,29.95,ESE,114,1.0,3.0,60,0.00,,,0.00,638,Wunderground v.1.15,2013-09-25 16:18:00,
2013-09-25 12:23:00,70.8,55.3,29.95,SE,127,1.0,3.0,58,0.00,,,0.00,603,Wunderground v.1.15,2013-09-25 16:23:00,
2013-09-25 12:29:00,70.7,56.6,29.95,NNE,20,1.0,3.0,61,0.00,,,0.00,703,Wunderground v.1.15,2013-09-25 16:29:00,
2013-09-25 12:35:00,70.9,56.3,29.95,SE,126,1.0,1.0,60,0.00,,,0.00,603,Wunderground v.1.15,2013-09-25 16:35:00,
2013-09-25 12:40:00,71.1,57.0,29.95,East,91,1.0,1.0,61,0.00,,,0.00,587,Wunderground v.1.15,2013-09-25 16:40:00,
2013-09-25 12:46:00,71.3,56.7,29.95,SE,138,1.0,3.0,60,0.00,,,0.00,557,Wunderground v.1.15,2013-09-25 16:46:00,
2013-09-25 12:52:00,71.3,56.7,29.95,ENE,66,1.0,1.0,60,0.00,,,0.00,570,Wunderground v.1.15,2013-09-25 16:52:00,
2013-09-25 12:57:00,71.3,56.7,29.95,ENE,61,1.0,1.0,60,0.00,,,0.00,619,Wunderground v.1.15,2013-09-25 16:57:00,
2013-09-25 13:03:00,71.6,56.5,29.95,East,98,1.0,2.0,59,0.00,,,0.00,640,Wunderground v.1.15,2013-09-25 17:03:00,
2013-09-25 13:09:00,71.8,56.7,29.95,NNE,28,1.0,2.0,59,0.00,,,0.00,613,Wunderground v.1.15,2013-09-25 17:09:00,
2013-09-25 13:14:00,71.9,58.2,29.95,ESE,121,1.0,3.0,62,0.00,,,0.00,566,Wunderground v.1.15,2013-09-25 17:14:00,
2013-09-25 13:19:00,72.0,56.4,29.95,ESE,110,1.0,3.0,58,0.00,,,0.00,513,Wunderground v.1.15,2013-09-25 17:19:00,
2013-09-25 13:25:00,72.0,56.4,29.95,ESE,108,1.0,1.0,58,0.00,,,0.00,642,Wunderground v.1.15,2013-09-25 17:25:00,
2013-09-25 13:30:00,72.0,56.9,29.94,NNW,335,0.0,0.0,59,0.00,,,0.00,705,Wunderground v.1.15,2013-09-25 17:30:00,
2013-09-25 13:36:00,72.2,55.6,29.94,East,88,0.0,3.0,56,0.00,,,0.00,612,Wunderground v.1.15,2013-09-25 17:36:00,
2013-09-25 13:42:00,72.4,56.3,29.94,North,5,1.0,1.0,57,0.00,,,0.00,652,Wunderground v.1.15,2013-09-25 17:42:00,
2013-09-25 13:47:00,72.6,57.9,29.94,East,98,1.0,1.0,60,0.00,,,0.00,693,Wunderground v.1.15,2013-09-25 17:47:00,
2013-09-25 13:52:00,72.8,57.2,29.93,ESE,112,0.0,1.0,58,0.00,,,0.00,519,Wunderground v.1.15,2013-09-25 17:52:00,
2013-09-25 13:58:00,73.0,55.4,29.93,ENE,57,1.0,2.0,54,0.00,,,0.00,656,Wunderground v.1.15,2013-09-25 17:58:00,
2013-09-25 14:04:00,73.1,56.0,29.93,NE,35,1.0,2.0,55,0.00,,,0.00,705,Wunderground v.1.15,2013-09-25 18:04:00,
2013-09-25 14:09:00,73.3,57.1,29.92,North,5,1.0,3.0,57,0.00,,,0.00,826,Wunderground v.1.15,2013-09-25 18:09:00,
2013-09-25 14:15:00,73.5,55.3,29.92,NE,49,2.0,6.0,53,0.00,,,0.00,819,Wunderground v.1.15,2013-09-25 18:15:00,
2013-09-25 14:20:00,73.4,55.2,29.92,NE,52,2.0,2.0,53,0.00,,,0.00,698,Wunderground v.1.15,2013-09-25 18:20:00,
2013-09-25 14:26:00,73.5,55.8,29.92,North,11,1.0,2.0,54,0.00,,,0.00,738,Wunderground v.1.15,2013-09-25 18:26:00,
2013-09-25 14:31:00,73.5,52.0,29.92,NE,45,1.0,9.0,47,0.00,,,-99.99,738,WeatherLink 6.0.3,2013-09-25 18:31:00,
2013-09-25 14:36:00,73.6,53.8,29.92,ENE,76,2.0,4.0,50,0.00,,,0.00,250,Wunderground v.1.15,2013-09-25 18:36:00,
2013-09-25 14:42:00,73.6,53.3,29.92,North,5,1.0,1.0,49,0.00,,,0.00,213,Wunderground v.1.15,2013-09-25 18:42:00,
2013-09-25 14:48:00,73.5,53.2,29.92,SE,141,1.0,2.0,49,0.00,,,0.00,381,Wunderground v.1.15,2013-09-25 18:48:00,
2013-09-25 14:54:00,73.5,52.6,29.92,ESE,109,1.0,4.0,48,0.00,,,0.00,554,Wunderground v.1.15,2013-09-25 18:54:00,
2013-09-25 14:59:00,73.5,52.0,29.92,East,94,1.0,4.0,47,0.00,,,0.00,302,Wunderground v.1.15,2013-09-25 18:59:00,
2013-09-25 15:04:00,73.4,51.4,29.91,NE,47,1.0,3.0,46,0.00,,,0.00,200,Wunderground v.1.15,2013-09-25 19:04:00,
2013-09-25 15:09:00,73.5,53.7,29.91,NE,52,1.0,3.0,50,0.00,,,0.00,278,Wunderground v.1.15,2013-09-25 19:09:00,
2013-09-25 15:15:00,73.5,53.7,29.91,NNE,23,1.0,2.0,50,0.00,,,0.00,244,Wunderground v.1.15,2013-09-25 19:15:00,
2013-09-25 15:21:00,73.5,53.2,29.91,East,98,0.0,0.0,49,0.00,,,0.00,149,Wunderground v.1.15,2013-09-25 19:21:00,
2013-09-25 15:26:00,73.8,53.4,29.91,ESE,122,1.0,2.0,49,0.00,,,0.00,309,Wunderground v.1.15,2013-09-25 19:26:00,
2013-09-25 15:32:00,74.0,53.1,29.91,North,5,2.0,4.0,48,0.00,,,0.00,619,Wunderground v.1.15,2013-09-25 19:32:00,
2013-09-25 15:38:00,74.1,53.7,29.91,North,360,2.0,4.0,49,0.00,,,0.00,635,Wunderground v.1.15,2013-09-25 19:38:00,
2013-09-25 15:43:00,74.2,53.8,29.90,East,89,1.0,4.0,49,0.00,,,0.00,622,Wunderground v.1.15,2013-09-25 19:43:00,
2013-09-25 15:49:00,74.2,53.8,29.90,SE,136,1.0,4.0,49,0.00,,,0.00,615,Wunderground v.1.15,2013-09-25 19:49:00,
2013-09-25 15:55:00,74.4,52.3,29.90,SE,130,0.0,1.0,46,0.00,,,0.00,598,Wunderground v.1.15,2013-09-25 19:55:00,
2013-09-25 16:00:00,74.6,53.0,29.90,NE,44,0.0,0.0,47,0.00,,,0.00,599,Wunderground v.1.15,2013-09-25 20:00:00,
2013-09-25 16:05:00,74.7,54.8,29.90,NNE,28,0.0,2.0,50,0.00,,,0.00,589,Wunderground v.1.15,2013-09-25 20:05:00,
2013-09-25 16:11:00,74.7,53.7,29.89,ESE,106,0.0,2.0,48,0.00,,,0.00,577,Wunderground v.1.15,2013-09-25 20:11:00,
2013-09-25 16:16:00,74.7,54.3,29.90,North,9,1.0,4.0,49,0.00,,,0.00,490,Wunderground v.1.15,2013-09-25 20:16:00,
2013-09-25 16:22:00,74.6,53.0,29.89,East,79,1.0,2.0,47,0.00,,,0.00,46,Wunderground v.1.15,2013-09-25 20:22:00,
2013-09-25 16:28:00,74.5,52.9,29.89,East,87,1.0,3.0,47,0.00,,,0.00,44,Wunderground v.1.15,2013-09-25 20:28:00,
2013-09-25 16:33:00,74.2,51.5,29.89,SE,136,1.0,1.0,45,0.00,,,0.00,56,Wunderground v.1.15,2013-09-25 20:33:00,
2013-09-25 16:38:00,74.0,51.3,29.90,East,80,1.0,3.0,45,0.00,,,0.00,33,Wunderground v.1.15,2013-09-25 20:38:00,
2013-09-25 16:43:00,74.0,51.9,29.89,ENE,75,0.0,2.0,46,0.00,,,0.00,40,Wunderground v.1.15,2013-09-25 20:43:00,
2013-09-25 16:49:00,73.9,51.8,29.89,NE,49,1.0,4.0,46,0.00,,,0.00,39,Wunderground v.1.15,2013-09-25 20:49:00,
2013-09-25 16:55:00,73.8,51.1,29.89,ESE,113,1.0,1.0,45,0.00,,,0.00,39,Wunderground v.1.15,2013-09-25 20:55:00,
2013-09-25 17:00:00,73.6,49.7,29.89,SE,140,0.0,0.0,43,0.00,,,0.00,49,Wunderground v.1.15,2013-09-25 21:00:00,
2013-09-25 17:06:00,73.5,50.9,29.89,East,89,0.0,0.0,45,0.00,,,0.00,56,Wunderground v.1.15,2013-09-25 21:06:00,
2013-09-25 17:11:00,73.5,51.4,29.89,ESE,116,0.0,1.0,46,0.00,,,0.00,51,Wunderground v.1.15,2013-09-25 21:11:00,
2013-09-25 17:17:00,73.5,51.4,29.89,NE,38,1.0,2.0,46,0.00,,,0.00,47,Wunderground v.1.15,2013-09-25 21:17:00,
2013-09-25 17:22:00,73.4,52.5,29.89,East,100,1.0,1.0,48,0.00,,,0.00,49,Wunderground v.1.15,2013-09-25 21:22:00,
2013-09-25 17:28:00,73.3,53.0,29.89,East,82,0.0,2.0,49,0.00,,,0.00,63,Wunderground v.1.15,2013-09-25 21:28:00,
2013-09-25 17:34:00,73.1,53.9,29.89,NNE,13,0.0,2.0,51,0.00,,,0.00,81,Wunderground v.1.15,2013-09-25 21:34:00,
2013-09-25 17:39:00,73.0,53.8,29.89,NE,54,0.0,2.0,51,0.00,,,0.00,127,Wunderground v.1.15,2013-09-25 21:39:00,
2013-09-25 17:45:00,72.9,54.8,29.89,NE,46,0.0,1.0,53,0.00,,,0.00,67,Wunderground v.1.15,2013-09-25 21:45:00,
2013-09-25 17:51:00,72.6,55.0,29.89,NE,46,0.0,0.0,54,0.00,,,0.00,56,Wunderground v.1.15,2013-09-25 21:51:00,
2013-09-25 17:56:00,72.3,55.2,29.89,NE,46,0.0,0.0,55,0.00,,,0.00,62,Wunderground v.1.15,2013-09-25 21:56:00,
2013-09-25 18:01:00,71.9,55.8,29.89,NE,46,0.0,1.0,57,0.00,,,0.00,46,Wunderground v.1.15,2013-09-25 22:01:00,
2013-09-25 18:07:00,71.4,59.9,29.89,NE,36,0.0,1.0,67,0.00,,,0.00,40,Wunderground v.1.15,2013-09-25 22:07:00,
2013-09-25 18:13:00,70.5,61.4,29.89,NE,36,0.0,0.0,73,0.00,,,0.00,35,Wunderground v.1.15,2013-09-25 22:13:00,
2013-09-25 18:19:00,69.3,60.7,29.90,NE,36,0.0,0.0,74,0.00,,,0.00,32,Wunderground v.1.15,2013-09-25 22:19:00,
2013-09-25 18:25:00,67.9,60.4,29.90,NE,36,0.0,0.0,77,0.00,,,0.00,28,Wunderground v.1.15,2013-09-25 22:25:00,
2013-09-25 18:31:00,66.8,60.1,29.90,NE,45,0.0,1.0,79,0.00,,,-99.99,34,WeatherLink 6.0.3,2013-09-25 22:31:00,
2013-09-25 18:37:00,65.6,59.6,29.90,NE,36,0.0,0.0,81,0.00,,,0.00,21,Wunderground v.1.15,2013-09-25 22:37:00,
2013-09-25 18:42:00,64.8,59.2,29.90,NE,36,0.0,0.0,82,0.00,,,0.00,18,Wunderground v.1.15,2013-09-25 22:42:00,
2013-09-25 18:48:00,63.9,58.6,29.91,NE,36,0.0,0.0,83,0.00,,,0.00,14,Wunderground v.1.15,2013-09-25 22:48:00,
2013-09-25 18:54:00,63.1,58.2,29.90,NE,36,0.0,0.0,84,0.00,,,0.00,11,Wunderground v.1.15,2013-09-25 22:54:00,
2013-09-25 19:00:00,62.4,57.8,29.90,NE,36,0.0,0.0,85,0.00,,,0.00,7,Wunderground v.1.15,2013-09-25 23:00:00,
2013-09-25 19:06:00,61.7,57.5,29.90,NE,36,0.0,0.0,86,0.00,,,0.00,0,Wunderground v.1.15,2013-09-25 23:06:00,
2013-09-25 19:12:00,61.0,56.8,29.91,NE,36,0.0,0.0,86,0.00,,,0.00,0,Wunderground v.1.15,2013-09-25 23:12:00,
2013-09-25 19:18:00,60.4,56.5,29.91,NE,36,0.0,0.0,87,0.00,,,0.00,0,Wunderground v.1.15,2013-09-25 23:18:00,
2013-09-25 19:24:00,59.8,55.9,29.91,NE,36,0.0,0.0,87,0.00,,,0.00,0,Wunderground v.1.15,2013-09-25 23:24:00,
2013-09-25 19:29:00,59.3,55.7,29.91,NE,36,0.0,0.0,88,0.00,,,0.00,0,Wunderground v.1.15,2013-09-25 23:29:00,
2013-09-25 19:35:00,58.9,55.7,29.91,NE,36,0.0,0.0,89,0.00,,,0.00,0,Wunderground v.1.15,2013-09-25 23:35:00,
2013-09-25 19:41:00,58.4,55.2,29.91,NE,36,0.0,0.0,89,0.00,,,0.00,0,Wunderground v.1.15,2013-09-25 23:41:00,
2013-09-25 19:47:00,58.0,55.1,29.91,NE,36,0.0,0.0,90,0.00,,,0.00,0,Wunderground v.1.15,2013-09-25 23:47:00,
2013-09-25 19:54:00,57.6,54.7,29.92,NE,36,0.0,0.0,90,0.00,,,0.00,0,Wunderground v.1.15,2013-09-25 23:54:00,
2013-09-25 19:59:00,57.3,54.7,29.92,NE,36,0.0,0.0,91,0.00,,,0.00,0,Wunderground v.1.15,2013-09-25 23:59:00,
2013-09-25 20:05:00,56.9,54.3,29.92,NE,36,0.0,0.0,91,0.00,,,0.00,0,Wunderground v.1.15,2013-09-26 00:05:00,
2013-09-25 20:10:00,56.8,54.5,29.92,NE,36,0.0,0.0,92,0.00,,,0.00,0,Wunderground v.1.15,2013-09-26 00:10:00,
2013-09-25 20:15:00,56.6,54.3,29.92,NE,36,0.0,0.0,92,0.00,,,0.00,0,Wunderground v.1.15,2013-09-26 00:15:00,
2013-09-25 20:20:00,56.4,54.1,29.92,NE,36,0.0,0.0,92,0.00,,,0.00,0,Wunderground v.1.15,2013-09-26 00:20:00,
2013-09-25 20:26:00,56.2,53.9,29.92,NE,36,0.0,0.0,92,0.00,,,0.00,0,Wunderground v.1.15,2013-09-26 00:26:00,
2013-09-25 20:32:00,56.0,54.0,29.92,NE,36,0.0,0.0,93,0.00,,,0.00,0,Wunderground v.1.15,2013-09-26 00:32:00,
2013-09-25 20:38:00,55.9,53.9,29.92,NE,36,0.0,0.0,93,0.00,,,0.00,0,Wunderground v.1.15,2013-09-26 00:38:00,
2013-09-25 20:43:00,55.6,53.6,29.92,NE,36,0.0,0.0,93,0.00,,,0.00,0,Wunderground v.1.15,2013-09-26 00:43:00,
2013-09-25 20:49:00,55.4,53.4,29.93,NE,36,0.0,0.0,93,0.00,,,0.00,0,Wunderground v.1.15,2013-09-26 00:49:00,
2013-09-25 20:55:00,55.2,53.2,29.93,NE,36,0.0,0.0,93,0.00,,,0.00,0,Wunderground v.1.15,2013-09-26 00:55:00,
2013-09-25 21:00:00,55.0,53.0,29.93,NE,36,0.0,0.0,93,0.00,,,0.00,0,Wunderground v.1.15,2013-09-26 01:00:00,
2013-09-25 21:06:00,54.8,52.8,29.93,NE,36,0.0,0.0,93,0.00,,,0.00,0,Wunderground v.1.15,2013-09-26 01:06:00,
2013-09-25 21:12:00,54.6,52.9,29.93,NE,36,0.0,0.0,94,0.00,,,0.00,0,Wunderground v.1.15,2013-09-26 01:12:00,
2013-09-25 21:18:00,54.5,52.8,29.93,NE,36,0.0,0.0,94,0.00,,,0.00,0,Wunderground v.1.15,2013-09-26 01:18:00,
2013-09-25 21:24:00,54.3,52.6,29.93,NE,36,0.0,0.0,94,0.00,,,0.00,0,Wunderground v.1.15,2013-09-26 01:24:00,
2013-09-25 21:29:00,54.1,52.4,29.93,NE,36,0.0,0.0,94,0.00,,,0.00,0,Wunderground v.1.15,2013-09-26 01:29:00,
2013-09-25 21:35:00,53.9,52.2,29.93,NE,36,0.0,0.0,94,0.00,,,0.00,0,Wunderground v.1.15,2013-09-26 01:35:00,
2013-09-25 21:41:00,53.7,52.0,29.93,NE,36,0.0,0.0,94,0.00,,,0.00,0,Wunderground v.1.15,2013-09-26 01:41:00,
2013-09-25 21:47:00,53.5,51.8,29.93,NE,36,0.0,0.0,94,0.00,,,0.00,0,Wunderground v.1.15,2013-09-26 01:47:00,
2013-09-25 21:53:00,53.5,51.8,29.94,NE,36,0.0,0.0,94,0.00,,,0.00,0,Wunderground v.1.15,2013-09-26 01:53:00,
2013-09-25 21:59:00,53.3,51.6,29.94,NE,36,0.0,0.0,94,0.00,,,0.00,0,Wunderground v.1.15,2013-09-26 01:59:00,
2013-09-25 22:04:00,53.2,51.5,29.94,NE,36,0.0,0.0,94,0.00,,,0.00,0,Wunderground v.1.15,2013-09-26 02:04:00,
2013-09-25 22:09:00,53.1,51.7,29.94,NE,36,0.0,0.0,95,0.00,,,0.00,0,Wunderground v.1.15,2013-09-26 02:09:00,
2013-09-25 22:15:00,53.0,51.3,29.94,NE,36,0.0,0.0,94,0.00,,,0.00,0,Wunderground v.1.15,2013-09-26 02:15:00,
2013-09-25 22:21:00,52.7,51.0,29.94,NE,36,0.0,0.0,94,0.00,,,0.00,0,Wunderground v.1.15,2013-09-26 02:21:00,
2013-09-25 22:27:00,52.6,51.2,29.94,NE,36,0.0,0.0,95,0.00,,,0.00,0,Wunderground v.1.15,2013-09-26 02:27:00,
2013-09-25 22:33:00,52.4,51.0,29.94,NE,36,0.0,0.0,95,0.00,,,0.00,0,Wunderground v.1.15,2013-09-26 02:33:00,
2013-09-25 22:39:00,52.3,50.9,29.94,NE,36,0.0,0.0,95,0.00,,,0.00,0,Wunderground v.1.15,2013-09-26 02:39:00,
2013-09-25 22:45:00,52.2,50.8,29.94,NE,36,0.0,0.0,95,0.00,,,0.00,0,Wunderground v.1.15,2013-09-26 02:45:00,
2013-09-25 22:50:00,52.1,50.7,29.94,NE,36,0.0,0.0,95,0.00,,,0.00,0,Wunderground v.1.15,2013-09-26 02:50:00,
2013-09-25 22:56:00,51.8,50.4,29.95,NE,36,0.0,0.0,95,0.00,,,0.00,0,Wunderground v.1.15,2013-09-26 02:56:00,
2013-09-25 23:01:00,51.7,50.3,29.95,NE,36,0.0,0.0,95,0.00,,,0.00,0,Wunderground v.1.15,2013-09-26 03:01:00,
2013-09-25 23:06:00,51.6,50.2,29.95,NE,36,0.0,0.0,95,0.00,,,0.00,0,Wunderground v.1.15,2013-09-26 03:06:00,
2013-09-25 23:12:00,51.5,50.1,29.95,NE,36,0.0,0.0,95,0.00,,,0.00,0,Wunderground v.1.15,2013-09-26 03:12:00,
2013-09-25 23:18:00,51.4,50.0,29.95,NE,36,0.0,0.0,95,0.00,,,0.00,0,Wunderground v.1.15,2013-09-26 03:18:00,
2013-09-25 23:24:00,51.3,49.9,29.95,NE,36,0.0,0.0,95,0.00,,,0.00,0,Wunderground v.1.15,2013-09-26 03:24:00,
2013-09-25 23:30:00,51.1,49.7,29.95,NE,36,0.0,0.0,95,0.00,,,0.00,0,Wunderground v.1.15,2013-09-26 03:30:00,
2013-09-25 23:36:00,51.1,50.0,29.95,NE,36,0.0,0.0,96,0.00,,,0.00,0,Wunderground v.1.15,2013-09-26 03:36:00,
2013-09-25 23:41:00,51.1,50.0,29.95,NE,36,0.0,0.0,96,0.00,,,0.00,0,Wunderground v.1.15,2013-09-26 03:41:00,
2013-09-25 23:47:00,51.0,49.9,29.95,NE,36,0.0,0.0,96,0.00,,,0.00,0,Wunderground v.1.15,2013-09-26 03:47:00,
2013-09-25 23:53:00,51.2,50.1,29.95,NE,36,0.0,0.0,96,0.00,,,0.00,0,Wunderground v.1.15,2013-09-26 03:53:00,
2013-09-25 23:59:00,51.2,50.1,29.95,NE,36,0.0,0.0,96,0.00,,,0.00,0,Wunderground v.1.15,2013-09-26 03:59:00,